This is the latest recevied weather packets stored in our database for station/object OE3BCB-14. If no packets are shown the sender has not sent any weather packets the latest 1 day(s).
| Time | Temp. | Humidity | Pressure | Rain* | Wind** | Luminosity | Snow |
|---|---|---|---|---|---|---|---|
| 1778088273 | 26.11° C | 26% | 1005.1 hPa | - | - | 12 W/m² | - |
| 1778087366 | 26.11° C | 25% | 1005.2 hPa | - | - | 16 W/m² | - |
| 1778086761 | 26.67° C | 25% | 1005.2 hPa | - | - | 20 W/m² | - |
| 1778085249 | 28.33° C | 22% | 1005.2 hPa | - | - | 31 W/m² | - |
| 1778083737 | 30° C | 21% | 1005.4 hPa | - | - | 41 W/m² | - |
| 1778083132 | 30° C | 20% | 1005.4 hPa | - | - | 46 W/m² | - |
| 1778082225 | 31.11° C | 20% | 1005.5 hPa | - | - | 55 W/m² | - |
| 1778081620 | 32.78° C | 19% | 1005.5 hPa | - | - | 68 W/m² | - |
| 1778080713 | 35° C | 19% | 1005.7 hPa | - | - | 104 W/m² | - |
| 1778080108 | 33.33° C | 19% | 1005.6 hPa | - | - | 104 W/m² | - |
| 1778078596 | 35.56° C | 18% | 1005.7 hPa | - | - | 108 W/m² | - |
| 1778076479 | 33.89° C | 18% | 1005.8 hPa | - | - | 128 W/m² | - |
| 1778075874 | 35.56° C | 17% | 1005.9 hPa | - | - | 106 W/m² | - |
| 1778074362 | 37.22° C | 18% | 1006 hPa | - | - | 95 W/m² | - |
| 1778073455 | 42.22° C | 18% | 1006.3 hPa | - | - | 116 W/m² | - |
| 1778072850 | 40° C | 19% | 1006.2 hPa | - | - | 121 W/m² | - |
| 1778071943 | 39.44° C | 20% | 1006.5 hPa | - | - | 103 W/m² | - |
| 1778071338 | 35° C | 21% | 1006.5 hPa | - | - | 106 W/m² | - |
| 1778069221 | 36.67° C | 21% | 1006.8 hPa | - | - | 159 W/m² | - |
| 1778068314 | 38.89° C | 21% | 1007.2 hPa | - | - | 160 W/m² | - |
| 1778067709 | 38.33° C | 23% | 1007.3 hPa | - | - | 147 W/m² | - |
| 1778066197 | 37.22° C | 23% | 1007.7 hPa | - | - | 82 W/m² | - |
| 1778065592 | 36.11° C | 24% | 1007.8 hPa | - | - | 85 W/m² | - |
| 1778064685 | 35° C | 26% | 1008.1 hPa | - | - | 93 W/m² | - |
| 1778064382 | 36.11° C | 26% | 1008.2 hPa | - | - | 113 W/m² | - |
* Rain since midnight (hover to see other rain measurements)
** Current wind speed in m/s (hover to see current wind gust speed)